| time (UTC) | temp C | wind direction | speed KPH | gust KPH | rain 1hr cm | rain 24hr cm | rain mn cm | humidity % | barometer mb |
| 20260510071737 | 11 | 250 | 0.0 | 0.0 | 0.00 | 0.00 | 0.00 | 86 | 1013.1 |
| 20260510071233 | 11 | 205 | 0.0 | 0.0 | 0.00 | 0.00 | 0.00 | 86 | 1013.0 |
| 20260510070732 | 11 | 241 | 0.0 | 0.0 | 0.00 | 0.00 | 0.00 | 85 | 1013.1 |
| 20260510070229 | 11 | 225 | 0.0 | 0.0 | 0.00 | 0.00 | 0.00 | 85 | 1013.1 |
| 20260510065723 | 11 | 132 | 0.0 | 0.0 | 0.00 | 0.00 | 0.00 | 85 | 1013.0 |
| 20260510065220 | 11 | 240 | 0.0 | 0.0 | 0.00 | 0.00 | 0.00 | 85 | 1012.9 |
| 20260510064717 | 11 | 232 | 0.0 | 0.0 | 0.00 | 0.00 | 0.00 | 84 | 1013.0 |
| 20260510064215 | 11 | 202 | 0.0 | 0.0 | 0.00 | 0.00 | 0.00 | 84 | 1012.9 |
| 20260510063711 | 12 | 249 | 0.0 | 0.0 | 0.00 | 0.00 | 0.00 | 84 | 1013.0 |
| 20260510063207 | 12 | 242 | 0.0 | 0.0 | 0.00 | 0.00 | 0.00 | 83 | 1013.0 |
| 20260510062704 | 12 | 205 | 0.0 | 0.0 | 0.00 | 0.00 | 0.00 | 83 | 1013.2 |
| 20260510062200 | 12 | 239 | 0.0 | 0.0 | 0.00 | 0.00 | 0.00 | 83 | 1013.1 |
| 20260510061655 | 12 | 210 | 0.0 | 0.0 | 0.00 | 0.00 | 0.00 | 82 | 1013.2 |
| 20260510061153 | 12 | 274 | 0.0 | 0.0 | 0.00 | 0.00 | 0.00 | 82 | 1013.2 |
| 20260510060649 | 12 | 218 | 0.0 | 0.0 | 0.00 | 0.00 | 0.00 | 82 | 1013.2 |
| 20260510060145 | 12 | 234 | 0.0 | 0.0 | 0.00 | 0.00 | 0.00 | 82 | 1013.3 |
| 20260510055641 | 12 | 207 | 0.0 | 0.0 | 0.00 | 0.00 | 0.00 | 81 | 1013.2 |
| 20260510055140 | 12 | 202 | 0.0 | 0.0 | 0.00 | 0.00 | 0.00 | 81 | 1013.3 |
| 20260510054635 | 12 | 219 | 0.0 | 0.0 | 0.00 | 0.00 | 0.00 | 80 | 1013.0 |
| 20260510054131 | 12 | 216 | 0.0 | 0.0 | 0.00 | 0.00 | 0.00 | 79 | 1013.2 |
| 20260510053630 | 12 | 111 | 0.0 | 0.0 | 0.00 | 0.00 | 0.00 | 80 | 1013.2 |
| 20260510053127 | 13 | 225 | 0.0 | 0.0 | 0.00 | 0.00 | 0.00 | 79 | 1013.1 |
| 20260510052623 | 13 | 228 | 0.0 | 0.0 | 0.00 | 0.00 | 0.00 | 77 | 1013.3 |
| 20260510052120 | 13 | 120 | 0.0 | 0.0 | 0.00 | 0.00 | 0.00 | 78 | 1013.3 |
| 20260510051615 | 13 | 253 | 0.0 | 1.6 | 0.00 | 0.00 | 0.00 | 78 | 1013.4 |
| 20260510051112 | 13 | 74 | 0.0 | 0.0 | 0.00 | 0.00 | 0.00 | 76 | 1013.1 |
| 20260510050609 | 13 | 54 | 0.0 | 0.0 | 0.00 | 0.00 | 0.00 | 76 | 1013.2 |
| 20260510050106 | 13 | 352 | 0.0 | 0.0 | 0.00 | 0.00 | 0.00 | 75 | 1013.3 |
| 20260510045603 | 14 | 333 | 0.0 | 1.6 | 0.00 | 0.00 | 0.00 | 74 | 1013.3 |
| 20260510045059 | 13 | 81 | 3.2 | 4.8 | 0.00 | 0.00 | 0.00 | 74 | 1013.3 |
| 20260510044556 | 13 | 252 | 1.6 | 3.2 | 0.00 | 0.00 | 0.00 | 75 | 1013.1 |
| 20260510044054 | 13 | 89 | 1.6 | 4.8 | 0.00 | 0.00 | 0.00 | 75 | 1013.2 |
| 20260510043549 | 13 | 118 | 0.0 | 3.2 | 0.00 | 0.00 | 0.00 | 77 | 1013.4 |
| 20260510043045 | 13 | 90 | 3.2 | 4.8 | 0.00 | 0.00 | 0.00 | 75 | 1013.1 |
| 20260510042544 | 13 | 136 | 0.0 | 3.2 | 0.00 | 0.00 | 0.00 | 77 | 1013.0 |
| 20260510042040 | 13 | 180 | 0.0 | 1.6 | 0.00 | 0.00 | 0.00 | 76 | 1013.0 |
| 20260510041537 | 12 | 90 | 3.2 | 3.2 | 0.00 | 0.00 | 0.00 | 79 | 1012.8 |
| 20260510041034 | 12 | 84 | 0.0 | 0.0 | 0.00 | 0.00 | 0.00 | 79 | 1012.9 |
| 20260510040531 | 12 | 151 | 0.0 | 0.0 | 0.00 | 0.00 | 0.00 | 79 | 1012.9 |
| 20260510040027 | 12 | 205 | 0.0 | 0.0 | 0.00 | 0.53 | 0.53 | 80 | 1012.9 |
| 20260510035523 | 12 | 79 | 0.0 | 0.0 | 0.00 | 0.53 | 0.53 | 81 | 1013.0 |
| 20260510035023 | 12 | 166 | 0.0 | 0.0 | 0.00 | 0.53 | 0.53 | 82 | 1012.7 |
| 20260510034522 | 12 | 280 | 0.0 | 0.0 | 0.00 | 0.53 | 0.53 | 82 | 1013.0 |
| 20260510034018 | 12 | 98 | 0.0 | 0.0 | 0.00 | 0.53 | 0.53 | 82 | 1012.7 |
| 20260510033514 | 12 | 208 | 0.0 | 0.0 | 0.00 | 0.53 | 0.53 | 82 | 1012.6 |
| 20260510033012 | 12 | 291 | 0.0 | 0.0 | 0.00 | 0.53 | 0.53 | 81 | 1012.6 |
| 20260510032508 | 12 | 273 | 0.0 | 0.0 | 0.00 | 0.53 | 0.53 | 80 | 1012.7 |
| 20260510032008 | 12 | 240 | 0.0 | 3.2 | 0.00 | 0.53 | 0.53 | 80 | 1012.7 |
| 20260510031504 | 12 | 116 | 0.0 | 0.0 | 0.00 | 0.53 | 0.53 | 83 | 1012.6 |
| 20260510031000 | 11 | 235 | 0.0 | 0.0 | 0.00 | 0.53 | 0.53 | 83 | 1012.5 |
| 20260510030455 | 11 | 189 | 0.0 | 0.0 | 0.00 | 0.53 | 0.53 | 83 | 1012.5 |
| 20260510025953 | 12 | 241 | 0.0 | 1.6 | 0.00 | 0.53 | 0.53 | 82 | 1012.5 |
| 20260510025450 | 11 | 259 | 0.0 | 0.0 | 0.00 | 0.53 | 0.53 | 82 | 1012.5 |
| 20260510024948 | 11 | 159 | 0.0 | 0.0 | 0.00 | 0.53 | 0.53 | 83 | 1012.4 |
| 20260510024444 | 11 | 298 | 0.0 | 0.0 | 0.00 | 0.53 | 0.53 | 83 | 1012.4 |
| 20260510023940 | 11 | 198 | 0.0 | 0.0 | 0.00 | 0.53 | 0.53 | 83 | 1012.2 |
| 20260510023436 | 11 | 195 | 0.0 | 0.0 | 0.00 | 0.53 | 0.53 | 82 | 1012.3 |
| 20260510022933 | 11 | 193 | 0.0 | 0.0 | 0.00 | 0.53 | 0.53 | 83 | 1012.2 |
| 20260510022432 | 11 | 252 | 0.0 | 0.0 | 0.00 | 0.53 | 0.53 | 82 | 1012.2 |
| 20260510021931 | 11 | 194 | 0.0 | 0.0 | 0.00 | 0.53 | 0.53 | 82 | 1012.2 |
| 20260510021430 | 11 | 114 | 0.0 | 0.0 | 0.00 | 0.53 | 0.53 | 82 | 1012.1 |
| 20260510020926 | 11 | 297 | 0.0 | 0.0 | 0.00 | 0.53 | 0.53 | 81 | 1011.9 |
| 20260510020421 | 12 | 209 | 0.0 | 0.0 | 0.00 | 0.53 | 0.53 | 82 | 1012.2 |
| 20260510015917 | 12 | 339 | 0.0 | 1.6 | 0.00 | 0.53 | 0.53 | 80 | 1012.1 |
| 20260510015413 | 12 | 199 | 0.0 | 1.6 | 0.00 | 0.53 | 0.53 | 80 | 1012.0 |
| 20260510014908 | 12 | 335 | 1.6 | 1.6 | 0.00 | 0.53 | 0.53 | 77 | 1011.9 |
| 20260510014406 | 12 | 136 | 0.0 | 0.0 | 0.00 | 0.53 | 0.53 | 77 | 1011.8 |
| 20260510013902 | 13 | 284 | 0.0 | 0.0 | 0.00 | 0.53 | 0.53 | 75 | 1011.8 |
| 20260510013357 | 12 | 210 | 0.0 | 0.0 | 0.00 | 0.53 | 0.53 | 77 | 1011.6 |
| 20260510012852 | 12 | 238 | 0.0 | 0.0 | 0.00 | 0.53 | 0.53 | 80 | 1011.7 |
| 20260510012347 | 12 | 253 | 0.0 | 0.0 | 0.00 | 0.53 | 0.53 | 78 | 1011.5 |
| 20260510011842 | 12 | 199 | 0.0 | 0.0 | 0.00 | 0.53 | 0.53 | 77 | 1011.5 |
| 20260510011338 | 12 | 207 | 0.0 | 0.0 | 0.00 | 0.53 | 0.53 | 77 | 1011.5 |
| 20260510010834 | 13 | 227 | 0.0 | 0.0 | 0.00 | 0.53 | 0.53 | 76 | 1011.3 |
| 20260510010332 | 13 | 171 | 0.0 | 0.0 | 0.00 | 0.53 | 0.53 | 73 | 1011.2 |
| 20260510005828 | 13 | 166 | 0.0 | 0.0 | 0.00 | 0.53 | 0.53 | 72 | 1011.2 |
| 20260510005325 | 13 | 208 | 0.0 | 0.0 | 0.00 | 0.53 | 0.53 | 72 | 1011.3 |
| 20260510004822 | 14 | 247 | 0.0 | 0.0 | 0.00 | 0.53 | 0.53 | 71 | 1011.3 |
| 20260510004320 | 15 | 97 | 0.0 | 1.6 | 0.00 | 0.53 | 0.53 | 68 | 1011.0 |
| 20260510003817 | 15 | 167 | 0.0 | 0.0 | 0.00 | 0.53 | 0.53 | 68 | 1011.3 |
| 20260510003314 | 15 | 129 | 0.0 | 0.0 | 0.00 | 0.53 | 0.53 | 67 | 1011.0 |
| 20260510002813 | 15 | 227 | 0.0 | 0.0 | 0.00 | 0.53 | 0.53 | 66 | 1010.8 |
| 20260510002310 | 16 | 201 | 0.0 | 0.0 | 0.00 | 0.53 | 0.53 | 65 | 1010.8 |
| 20260510001806 | 16 | 146 | 0.0 | 0.0 | 0.00 | 0.53 | 0.53 | 62 | 1010.8 |
| 20260510001305 | 17 | 216 | 0.0 | 0.0 | 0.00 | 0.53 | 0.53 | 62 | 1010.5 |
| 20260510000800 | 17 | 127 | 0.0 | 0.0 | 0.00 | 0.53 | 0.53 | 60 | 1010.4 |
| 20260510000258 | 18 | 211 | 0.0 | 1.6 | 0.00 | 0.53 | 0.53 | 60 | 1010.3 |
| 20260509235755 | 18 | 120 | 0.0 | 3.2 | 0.00 | 0.53 | 0.53 | 59 | 1010.4 |
| 20260509235251 | 18 | 321 | 0.0 | 4.8 | 0.00 | 0.53 | 0.53 | 59 | 1010.4 |
| 20260509234747 | 19 | 239 | 3.2 | 4.8 | 0.00 | 0.53 | 0.53 | 59 | 1010.2 |
| 20260509234244 | 19 | 20 | 0.0 | 0.0 | 0.00 | 0.53 | 0.53 | 57 | 1010.4 |
| 20260509233743 | 19 | 36 | 0.0 | 3.2 | 0.00 | 0.53 | 0.53 | 57 | 1010.5 |
| 20260509233240 | 19 | 319 | 1.6 | 6.4 | 0.00 | 0.53 | 0.53 | 58 | 1010.2 |
| 20260509232736 | 19 | 230 | 3.2 | 4.8 | 0.00 | 0.53 | 0.53 | 58 | 1010.0 |
| 20260509232233 | 20 | 268 | 4.8 | 11.3 | 0.00 | 0.53 | 0.53 | 59 | 1010.2 |
| 20260509231729 | 20 | 348 | 3.2 | 6.4 | 0.00 | 0.53 | 0.53 | 55 | 1010.4 |
| 20260509231227 | 19 | 307 | 8.0 | 11.3 | 0.00 | 0.53 | 0.53 | 56 | 1010.4 |
| 20260509230724 | 20 | 306 | 6.4 | 11.3 | 0.00 | 0.53 | 0.53 | 55 | 1010.1 |
| 20260509230221 | 20 | 156 | 0.0 | 9.7 | 0.00 | 0.53 | 0.53 | 56 | 1010.3 |
| 20260509225716 | 20 | 259 | 3.2 | 6.4 | 0.00 | 0.53 | 0.53 | 55 | 1010.3 |
| 20260509225212 | 20 | 333 | 6.4 | 6.4 | 0.00 | 0.53 | 0.53 | 56 | 1010.6 |
| 20260509224708 | 20 | 327 | 3.2 | 4.8 | 0.00 | 0.53 | 0.53 | 54 | 1010.6 |
| 20260509224205 | 20 | 139 | 0.0 | 4.8 | 0.00 | 0.53 | 0.53 | 54 | 1010.6 |
| 20260509223702 | 20 | 304 | 4.8 | 12.9 | 0.00 | 0.53 | 0.53 | 55 | 1010.4 |
| 20260509223159 | 20 | 254 | 4.8 | 11.3 | 0.00 | 0.53 | 0.53 | 54 | 1010.6 |
| 20260509222656 | 20 | 321 | 12.9 | 16.1 | 0.00 | 0.53 | 0.53 | 55 | 1010.6 |
| 20260509222152 | 20 | 304 | 3.2 | 14.5 | 0.00 | 0.53 | 0.53 | 55 | 1010.5 |
| 20260509221647 | 20 | 326 | 8.0 | 16.1 | 0.00 | 0.53 | 0.53 | 56 | 1010.5 |
| 20260509221143 | 19 | 311 | 6.4 | 12.9 | 0.00 | 0.53 | 0.53 | 56 | 1010.5 |
| 20260509220640 | 20 | 231 | 6.4 | 20.9 | 0.00 | 0.53 | 0.53 | 55 | 1010.5 |
| 20260509220136 | 20 | 265 | 0.0 | 12.9 | 0.00 | 0.53 | 0.53 | 53 | 1010.6 |
| 20260509215632 | 20 | 344 | 16.1 | 22.5 | 0.00 | 0.53 | 0.53 | 55 | 1010.5 |
| 20260509215128 | 20 | 324 | 6.4 | 12.9 | 0.00 | 0.53 | 0.53 | 56 | 1010.4 |
| 20260509214626 | 20 | 327 | 11.3 | 14.5 | 0.00 | 0.53 | 0.53 | 54 | 1010.5 |
| 20260509214117 | 20 | 330 | 9.7 | 22.5 | 0.00 | 0.53 | 0.53 | 56 | 1010.5 |
| 20260509213613 | 20 | 332 | 12.9 | 20.9 | 0.00 | 0.53 | 0.53 | 57 | 1010.4 |
| 20260509213109 | 20 | 325 | 3.2 | 6.4 | 0.00 | 0.53 | 0.53 | 58 | 1010.7 |
| 20260509212607 | 21 | 256 | 6.4 | 9.7 | 0.00 | 0.53 | 0.53 | 57 | 1010.5 |
| 20260509212104 | 20 | 64 | 1.6 | 14.5 | 0.00 | 0.53 | 0.53 | 55 | 1010.5 |
| 20260509211600 | 20 | 221 | 6.4 | 12.9 | 0.00 | 0.53 | 0.53 | 57 | 1010.7 |
| 20260509211057 | 20 | 309 | 3.2 | 4.8 | 0.00 | 0.53 | 0.53 | 58 | 1010.5 |
| 20260509210553 | 20 | 327 | 0.0 | 4.8 | 0.00 | 0.53 | 0.53 | 58 | 1010.8 |
| 20260509210050 | 20 | 44 | 8.0 | 11.3 | 0.00 | 0.53 | 0.53 | 57 | 1010.5 |
| 20260509205543 | 20 | 313 | 4.8 | 9.7 | 0.00 | 0.53 | 0.53 | 56 | 1010.6 |
| 20260509205039 | 18 | 241 | 9.7 | 16.1 | 0.00 | 0.53 | 0.53 | 58 | 1010.6 |
| 20260509204536 | 18 | 271 | 1.6 | 11.3 | 0.00 | 0.53 | 0.53 | 60 | 1010.6 |
| 20260509204032 | 19 | 277 | 3.2 | 20.9 | 0.00 | 0.53 | 0.53 | 59 | 1010.9 |
| 20260509203528 | 19 | 229 | 11.3 | 16.1 | 0.00 | 0.53 | 0.53 | 58 | 1010.5 |
| 20260509203027 | 18 | 334 | 12.9 | 14.5 | 0.00 | 0.53 | 0.53 | 61 | 1010.6 |
| 20260509202527 | 19 | 321 | 8.0 | 11.3 | 0.00 | 0.53 | 0.53 | 59 | 1010.7 |
| 20260509202022 | 19 | 300 | 14.5 | 16.1 | 0.00 | 0.53 | 0.53 | 60 | 1010.6 |
| 20260509201517 | 18 | 109 | 0.0 | 6.4 | 0.00 | 0.53 | 0.53 | 58 | 1010.8 |
| 20260509201015 | 19 | 291 | 11.3 | 14.5 | 0.00 | 0.53 | 0.53 | 60 | 1010.8 |
| 20260509200510 | 20 | 6 | 6.4 | 16.1 | 0.00 | 0.53 | 0.53 | 57 | 1011.0 |
| 20260509200007 | 19 | 315 | 3.2 | 27.4 | 0.00 | 0.53 | 0.53 | 58 | 1011.2 |
| 20260509195502 | 18 | 305 | 11.3 | 24.1 | 0.00 | 0.53 | 0.53 | 60 | 1011.3 |
| 20260509195001 | 19 | 315 | 14.5 | 17.7 | 0.00 | 0.53 | 0.53 | 59 | 1011.2 |
| 20260509194457 | 19 | 303 | 3.2 | 9.7 | 0.00 | 0.53 | 0.53 | 59 | 1011.3 |
| 20260509193954 | 19 | 281 | 1.6 | 4.8 | 0.00 | 0.53 | 0.53 | 57 | 1011.4 |
| 20260509193454 | 18 | 307 | 4.8 | 11.3 | 0.00 | 0.53 | 0.53 | 60 | 1011.4 |
| 20260509192950 | 18 | 293 | 9.7 | 16.1 | 0.00 | 0.53 | 0.53 | 60 | 1011.6 |
| 20260509192447 | 17 | 155 | 0.0 | 12.9 | 0.00 | 0.53 | 0.53 | 60 | 1011.4 |
| 20260509191942 | 18 | 356 | 3.2 | 6.4 | 0.00 | 0.53 | 0.53 | 61 | 1011.5 |
| 20260509191438 | 18 | 333 | 6.4 | 16.1 | 0.00 | 0.53 | 0.53 | 60 | 1011.2 |
| 20260509190934 | 18 | 329 | 4.8 | 11.3 | 0.00 | 0.53 | 0.53 | 61 | 1011.5 |
| 20260509190431 | 18 | 313 | 8.0 | 12.9 | 0.00 | 0.53 | 0.53 | 61 | 1011.4 |
| 20260509185929 | 17 | 202 | 4.8 | 4.8 | 0.00 | 0.53 | 0.53 | 64 | 1011.6 |
| 20260509185426 | 17 | 320 | 4.8 | 12.9 | 0.00 | 0.53 | 0.53 | 63 | 1011.6 |
| 20260509184922 | 17 | 311 | 14.5 | 14.5 | 0.00 | 0.53 | 0.53 | 63 | 1011.7 |
| 20260509184420 | 17 | 337 | 3.2 | 4.8 | 0.00 | 0.53 | 0.53 | 64 | 1011.6 |
| 20260509183917 | 17 | 188 | 3.2 | 9.7 | 0.00 | 0.53 | 0.53 | 68 | 1011.5 |
| 20260509183411 | 16 | 351 | 1.6 | 3.2 | 0.00 | 0.53 | 0.53 | 70 | 1011.5 |
| 20260509182908 | 16 | 314 | 3.2 | 6.4 | 0.00 | 0.53 | 0.53 | 70 | 1011.7 |
| 20260509182404 | 16 | 351 | 0.0 | 3.2 | 0.00 | 0.53 | 0.53 | 70 | 1011.8 |
| 20260509181902 | 16 | 298 | 3.2 | 6.4 | 0.00 | 0.53 | 0.53 | 70 | 1011.7 |
| 20260509181359 | 16 | 62 | 0.0 | 3.2 | 0.00 | 0.53 | 0.53 | 72 | 1011.7 |
| 20260509180856 | 16 | 24 | 3.2 | 3.2 | 0.00 | 0.53 | 0.53 | 71 | 1011.8 |
| 20260509180352 | 15 | 278 | 0.0 | 1.6 | 0.00 | 0.53 | 0.53 | 75 | 1011.7 |
| 20260509175849 | 15 | 88 | 0.0 | 0.0 | 0.00 | 0.53 | 0.53 | 75 | 1011.7 |
| 20260509175345 | 15 | 61 | 0.0 | 4.8 | 0.00 | 0.53 | 0.53 | 74 | 1011.6 |
| 20260509174841 | 15 | 193 | 0.0 | 6.4 | 0.00 | 0.53 | 0.53 | 76 | 1011.8 |
| 20260509174337 | 15 | 159 | 4.8 | 9.7 | 0.00 | 0.53 | 0.53 | 76 | 1011.7 |
| 20260509173833 | 15 | 183 | 8.0 | 9.7 | 0.00 | 0.53 | 0.53 | 75 | 1011.7 |
| 20260509173329 | 15 | 115 | 0.0 | 4.8 | 0.00 | 0.53 | 0.53 | 76 | 1011.8 |
| 20260509172825 | 15 | 142 | 3.2 | 9.7 | 0.00 | 0.53 | 0.53 | 77 | 1011.9 |
| 20260509172322 | 15 | 261 | 0.0 | 9.7 | 0.00 | 0.53 | 0.53 | 78 | 1012.0 |
| 20260509171818 | 15 | 128 | 3.2 | 9.7 | 0.00 | 0.53 | 0.53 | 78 | 1011.9 |
| 20260509171314 | 15 | 225 | 3.2 | 9.7 | 0.00 | 0.53 | 0.53 | 78 | 1012.0 |
| 20260509170810 | 14 | 26 | 0.0 | 0.0 | 0.00 | 0.53 | 0.53 | 82 | 1011.8 |
| 20260509170306 | 13 | 153 | 0.0 | 0.0 | 0.00 | 0.53 | 0.53 | 83 | 1012.1 |
| 20260509165806 | 13 | 140 | 0.0 | 0.0 | 0.00 | 0.53 | 0.53 | 84 | 1012.1 |
| 20260509165301 | 12 | 166 | 0.0 | 0.0 | 0.00 | 0.53 | 0.53 | 85 | 1012.2 |
| 20260509164757 | 12 | 106 | 0.0 | 0.0 | 0.00 | 0.53 | 0.53 | 85 | 1012.1 |
| 20260509164253 | 12 | 146 | 0.0 | 6.4 | 0.00 | 0.53 | 0.53 | 84 | 1012.0 |
| 20260509163750 | 13 | 245 | 0.0 | 0.0 | 0.00 | 0.53 | 0.53 | 84 | 1012.1 |
| 20260509163246 | 13 | 224 | 3.2 | 4.8 | 0.00 | 0.53 | 0.53 | 83 | 1012.1 |
| 20260509162745 | 13 | 229 | 0.0 | 0.0 | 0.00 | 0.53 | 0.53 | 84 | 1011.9 |
| 20260509162239 | 13 | 166 | 0.0 | 0.0 | 0.00 | 0.53 | 0.53 | 85 | 1012.2 |
| 20260509161735 | 12 | 302 | 0.0 | 0.0 | 0.00 | 0.53 | 0.53 | 85 | 1012.0 |
| 20260509161231 | 12 | 150 | 0.0 | 6.4 | 0.00 | 0.53 | 0.53 | 85 | 1012.2 |
| 20260509160726 | 12 | 257 | 0.0 | 1.6 | 0.00 | 0.53 | 0.53 | 85 | 1012.2 |
| 20260509160223 | 12 | 88 | 0.0 | 0.0 | 0.00 | 0.53 | 0.53 | 85 | 1012.1 |
| 20260509155718 | 12 | 239 | 0.0 | 1.6 | 0.00 | 0.53 | 0.53 | 85 | 1012.2 |
| 20260509155215 | 12 | 49 | 0.0 | 0.0 | 0.00 | 0.53 | 0.53 | 86 | 1012.0 |
| 20260509154711 | 12 | 158 | 0.0 | 3.2 | 0.00 | 0.53 | 0.53 | 84 | 1012.4 |
| 20260509154208 | 12 | 228 | 0.0 | 1.6 | 0.00 | 0.53 | 0.53 | 84 | 1012.6 |
| 20260509153706 | 12 | 141 | 0.0 | 3.2 | 0.00 | 0.53 | 0.53 | 84 | 1012.4 |
| 20260509153202 | 12 | 350 | 0.0 | 0.0 | 0.00 | 0.53 | 0.53 | 85 | 1012.3 |
| 20260509152658 | 12 | 70 | 3.2 | 4.8 | 0.00 | 0.53 | 0.53 | 85 | 1012.5 |
| 20260509152155 | 12 | 297 | 0.0 | 0.0 | 0.00 | 0.53 | 0.53 | 86 | 1012.6 |
| 20260509151651 | 12 | 218 | 0.0 | 1.6 | 0.00 | 0.53 | 0.53 | 86 | 1012.7 |
| 20260509151149 | 12 | 227 | 0.0 | 0.0 | 0.00 | 0.53 | 0.53 | 86 | 1012.6 |
| 20260509150647 | 12 | 269 | 0.0 | 0.0 | 0.00 | 0.53 | 0.53 | 86 | 1012.7 |
| 20260509150144 | 12 | 354 | 0.0 | 0.0 | 0.00 | 0.53 | 0.53 | 86 | 1012.8 |
| 20260509145640 | 12 | 240 | 0.0 | 0.0 | 0.00 | 0.53 | 0.53 | 86 | 1012.8 |
| 20260509145136 | 11 | 16 | 0.0 | 0.0 | 0.00 | 0.53 | 0.53 | 86 | 1012.8 |
| 20260509144633 | 11 | 263 | 0.0 | 4.8 | 0.00 | 0.53 | 0.53 | 85 | 1012.8 |
| 20260509144130 | 12 | 133 | 0.0 | 3.2 | 0.00 | 0.53 | 0.53 | 86 | 1012.9 |
| 20260509143627 | 12 | 281 | 0.0 | 0.0 | 0.00 | 0.53 | 0.53 | 87 | 1012.8 |
| 20260509143124 | 11 | 149 | 0.0 | 0.0 | 0.00 | 0.53 | 0.53 | 87 | 1012.7 |
| 20260509142619 | 11 | 246 | 0.0 | 0.0 | 0.00 | 0.53 | 0.53 | 88 | 1012.7 |
| 20260509142116 | 11 | 233 | 0.0 | 0.0 | 0.18 | 0.53 | 0.53 | 88 | 1012.7 |
| 20260509141612 | 11 | 154 | 0.0 | 0.0 | 0.18 | 0.53 | 0.53 | 88 | 1012.7 |
| 20260509141109 | 11 | 102 | 0.0 | 0.0 | 0.00 | 0.51 | 0.51 | 88 | 1012.8 |
| 20260509140606 | 11 | 126 | 0.0 | 0.0 | 0.00 | 0.51 | 0.51 | 88 | 1012.5 |
| 20260509140104 | 11 | 68 | 0.0 | 0.0 | 0.00 | 0.51 | 0.51 | 88 | 1012.6 |
| 20260509135601 | 11 | 187 | 0.0 | 0.0 | 0.13 | 0.51 | 0.51 | 88 | 1012.8 |
| 20260509135058 | 11 | 79 | 0.0 | 0.0 | 0.13 | 0.51 | 0.51 | 88 | 1013.0 |
| 20260509134555 | 11 | 95 | 0.0 | 0.0 | 0.00 | 0.48 | 0.48 | 88 | 1013.0 |
| 20260509134053 | 11 | 172 | 0.0 | 0.0 | 0.18 | 0.48 | 0.48 | 88 | 1012.8 |
| 20260509133549 | 11 | 116 | 0.0 | 0.0 | 0.18 | 0.48 | 0.48 | 88 | 1013.0 |
| 20260509133047 | 11 | 147 | 0.0 | 0.0 | 0.00 | 0.46 | 0.46 | 88 | 1012.9 |
| 20260509132545 | 11 | 127 | 0.0 | 0.0 | 0.00 | 0.46 | 0.46 | 88 | 1012.8 |
| 20260509132043 | 11 | 136 | 0.0 | 1.6 | 0.18 | 0.46 | 0.46 | 88 | 1012.8 |
| 20260509131539 | 11 | 199 | 0.0 | 0.0 | 0.18 | 0.46 | 0.46 | 88 | 1012.8 |
| 20260509131036 | 11 | 228 | 0.0 | 0.0 | 0.00 | 0.43 | 0.43 | 88 | 1012.8 |
| 20260509130531 | 11 | 144 | 0.0 | 0.0 | 0.00 | 0.43 | 0.43 | 88 | 1012.9 |
| 20260509130029 | 11 | 119 | 0.0 | 0.0 | 0.00 | 0.43 | 0.43 | 89 | 1013.0 |
| 20260509125525 | 10 | 70 | 0.0 | 0.0 | 0.13 | 0.43 | 0.43 | 89 | 1013.1 |
| 20260509125022 | 10 | 74 | 0.0 | 0.0 | 0.13 | 0.43 | 0.43 | 88 | 1012.9 |
| 20260509124518 | 10 | 123 | 0.0 | 0.0 | 0.00 | 0.41 | 0.41 | 88 | 1013.0 |
| 20260509124016 | 10 | 49 | 0.0 | 0.0 | 0.18 | 0.41 | 0.41 | 88 | 1013.0 |
| 20260509123513 | 10 | 15 | 0.0 | 0.0 | 0.18 | 0.41 | 0.41 | 87 | 1013.0 |
| 20260509123009 | 10 | 84 | 0.0 | 0.0 | 0.13 | 0.38 | 0.38 | 87 | 1013.1 |
| 20260509122506 | 10 | 138 | 0.0 | 0.0 | 0.13 | 0.38 | 0.38 | 87 | 1013.1 |
| 20260509122003 | 10 | 102 | 0.0 | 0.0 | 0.18 | 0.36 | 0.36 | 87 | 1013.1 |
| 20260509121459 | 10 | 83 | 0.0 | 0.0 | 0.18 | 0.36 | 0.36 | 87 | 1013.2 |
| 20260509120958 | 10 | 343 | 0.0 | 0.0 | 0.00 | 0.33 | 0.33 | 87 | 1013.2 |
| 20260509120455 | 10 | 166 | 0.0 | 1.6 | 0.00 | 0.33 | 0.33 | 87 | 1013.0 |
| 20260509115953 | 10 | 156 | 0.0 | 1.6 | 0.00 | 0.33 | 0.33 | 87 | 1013.0 |
| 20260509115450 | 10 | 156 | 0.0 | 1.6 | 0.13 | 0.33 | 0.33 | 87 | 1013.1 |
| 20260509114948 | 10 | 188 | 0.0 | 0.0 | 0.13 | 0.33 | 0.33 | 87 | 1013.3 |
| 20260509114446 | 10 | 186 | 0.0 | 0.0 | 0.00 | 0.30 | 0.30 | 87 | 1013.0 |
| 20260509113945 | 10 | 202 | 0.0 | 1.6 | 0.00 | 0.30 | 0.30 | 87 | 1013.2 |
| 20260509113442 | 10 | 180 | 0.0 | 0.0 | 0.00 | 0.30 | 0.30 | 88 | 1013.2 |
| 20260509112938 | 10 | 222 | 0.0 | 0.0 | 0.18 | 0.30 | 0.30 | 88 | 1013.0 |
| 20260509112436 | 10 | 192 | 0.0 | 0.0 | 0.18 | 0.30 | 0.30 | 88 | 1013.0 |
| 20260509111932 | 10 | 191 | 0.0 | 0.0 | 0.00 | 0.28 | 0.28 | 88 | 1013.1 |
| 20260509111430 | 10 | 266 | 0.0 | 0.0 | 0.00 | 0.28 | 0.28 | 88 | 1012.9 |
| 20260509110927 | 10 | 74 | 0.0 | 0.0 | 0.00 | 0.28 | 0.28 | 88 | 1012.8 |
| 20260509110423 | 10 | 114 | 0.0 | 0.0 | 0.00 | 0.28 | 0.28 | 88 | 1013.0 |
| 20260509105921 | 10 | 287 | 0.0 | 0.0 | 0.13 | 0.28 | 0.28 | 88 | 1012.6 |
| 20260509105420 | 10 | 282 | 0.0 | 0.0 | 0.13 | 0.28 | 0.28 | 87 | 1012.8 |
| 20260509104916 | 10 | 160 | 1.6 | 3.2 | 0.00 | 0.25 | 0.25 | 87 | 1012.7 |
| 20260509104413 | 10 | 196 | 0.0 | 0.0 | 0.18 | 0.25 | 0.25 | 86 | 1012.7 |
| 20260509103911 | 10 | 192 | 0.0 | 0.0 | 0.18 | 0.25 | 0.25 | 86 | 1012.7 |
| 20260509103407 | 10 | 194 | 0.0 | 1.6 | 0.00 | 0.23 | 0.23 | 87 | 1012.9 |
| 20260509102906 | 10 | 181 | 0.0 | 0.0 | 0.13 | 0.23 | 0.23 | 86 | 1012.6 |
| 20260509102403 | 10 | 254 | 0.0 | 0.0 | 0.13 | 0.23 | 0.23 | 85 | 1012.9 |
| 20260509101859 | 10 | 116 | 0.0 | 0.0 | 0.00 | 0.20 | 0.20 | 85 | 1012.8 |
| 20260509101355 | 10 | 195 | 0.0 | 0.0 | 0.00 | 0.20 | 0.20 | 84 | 1012.8 |
| 20260509100853 | 10 | 197 | 0.0 | 3.2 | 0.00 | 0.20 | 0.20 | 83 | 1012.6 |
| 20260509100350 | 10 | 194 | 3.2 | 3.2 | 0.00 | 0.20 | 0.20 | 84 | 1012.8 |
| 20260509095846 | 10 | 289 | 0.0 | 0.0 | 0.00 | 0.20 | 0.20 | 83 | 1012.8 |
| 20260509095344 | 10 | 230 | 0.0 | 3.2 | 0.18 | 0.20 | 0.20 | 83 | 1012.7 |
| 20260509094841 | 10 | 233 | 0.0 | 0.0 | 0.18 | 0.20 | 0.20 | 83 | 1012.8 |
| 20260509094337 | 10 | 233 | 1.6 | 1.6 | 0.00 | 0.18 | 0.18 | 84 | 1012.8 |
| 20260509093835 | 10 | 111 | 0.0 | 0.0 | 0.13 | 0.18 | 0.18 | 83 | 1012.9 |
| 20260509093332 | 10 | 308 | 0.0 | 1.6 | 0.13 | 0.18 | 0.18 | 83 | 1013.2 |
| 20260509092831 | 10 | 242 | 3.2 | 4.8 | 0.00 | 0.15 | 0.15 | 82 | 1013.2 |
| 20260509092328 | 10 | 260 | 0.0 | 3.2 | 0.00 | 0.15 | 0.15 | 82 | 1013.2 |
| 20260509091826 | 10 | 283 | 0.0 | 0.0 | 0.00 | 0.15 | 0.15 | 82 | 1013.3 |
| 20260509091323 | 10 | 268 | 1.6 | 1.6 | 0.18 | 0.15 | 0.15 | 82 | 1013.4 |
| 20260509090820 | 11 | 255 | 1.6 | 9.7 | 0.18 | 0.15 | 0.15 | 81 | 1013.3 |
| 20260509090317 | 11 | 287 | 1.6 | 3.2 | 0.00 | 0.13 | 0.13 | 81 | 1013.4 |
| 20260509085814 | 11 | 278 | 3.2 | 6.4 | 0.00 | 0.13 | 0.13 | 80 | 1013.4 |
| 20260509085312 | 11 | 16 | 6.4 | 12.9 | 0.18 | 0.13 | 0.13 | 80 | 1013.3 |
| 20260509084808 | 11 | 238 | 4.8 | 6.4 | 0.30 | 0.13 | 0.13 | 79 | 1013.3 |
| 20260509084305 | 11 | 282 | 1.6 | 9.7 | 0.30 | 0.10 | 0.10 | 77 | 1013.1 |
| 20260509083803 | 11 | 308 | 3.2 | 9.7 | 0.30 | 0.08 | 0.08 | 75 | 1013.4 |
| 20260509083259 | 12 | 277 | 4.8 | 6.4 | 0.30 | 0.05 | 0.05 | 74 | 1013.3 |
| 20260509082756 | 12 | 267 | 9.7 | 17.7 | 0.18 | 0.03 | 0.03 | 69 | 1013.3 |
| 20260509082252 | 12 | 349 | 11.3 | 16.1 | 0.00 | 0.00 | 0.00 | 67 | 1013.2 |
| 20260509081749 | 13 | 267 | 6.4 | 11.3 | 0.00 | 0.00 | 0.00 | 63 | 1013.2 |
| 20260509081247 | 13 | 299 | 8.0 | 20.9 | 0.00 | 0.00 | 0.00 | 63 | 1013.1 |
| 20260509080745 | 13 | 279 | 11.3 | 20.9 | 0.00 | 0.00 | 0.00 | 62 | 1013.0 |
| 20260509080242 | 12 | 259 | 6.4 | 20.9 | 0.00 | 0.00 | 0.00 | 62 | 1012.9 |
| 20260509075741 | 12 | 255 | 0.0 | 0.0 | 0.00 | 0.00 | 0.00 | 65 | 1012.7 |
| 20260509075238 | 12 | 289 | 1.6 | 3.2 | 0.00 | 0.00 | 0.00 | 62 | 1012.7 |
| 20260509074734 | 12 | 230 | 0.0 | 0.0 | 0.00 | 0.00 | 0.00 | 64 | 1012.4 |
| 20260509074232 | 12 | 134 | 0.0 | 0.0 | 0.00 | 0.00 | 0.00 | 62 | 1012.2 |
| 20260509073728 | 12 | 89 | 0.0 | 0.0 | 0.00 | 0.00 | 0.00 | 62 | 1012.1 |
| 20260509073225 | 12 | 126 | 0.0 | 0.0 | 0.00 | 0.00 | 0.00 | 63 | 1012.1 |
| 20260509072721 | 12 | 241 | 0.0 | 1.6 | 0.00 | 0.00 | 0.00 | 65 | 1012.1 |
| 20260509072218 | 12 | 114 | 0.0 | 0.0 | 0.00 | 0.00 | 0.00 | 66 | 1012.0 |